Location: Madrid
(40.4000°N, 3.6830°W)
Time: 09:01:17
(UTC+01:00)

ISS - Pass Details

Date: 16 November 2017
Orbit: 402 x 407 km, 51.6° (Epoch: 21 November)

Event Time Altitude Azimuth Distance (km) Brightness Sun altitude
Exits shadow 05:38:09 18° 64° (ENE) 1,062 -1.1 -27.3°
Drops below altitude 10° 05:39:27 10° 83° (E) 1,452 -0.1 -27.1°
Sets 05:41:45 0° 97° (E) 2,308 1.3 -26.7°
